logo
Rechercher aéroport 
image banner adimage banner adimage banner ad
image banner ad

LOKP - Friesach/Deutsch-Ordens-Spital Kh

Situé à District Sankt Veit An Der Glan, Austria

ICAO - , IATA -

Données fournies par Airmate  

Information générale

Coordonnées: N46°56'48" E14°24'36"
Élévation : 2113 feet MSL.
 
Voir autres Aéroports à Carinthia

Données opérationnelles

Special qualification required
Heure actuelle UTC:
Heure actuelle locale:
Météo à : LOWK - Klagenfurt ( 34 km )
METAR: LOWK 241150Z AUTO 25003KT 170V340 9999 FEW080 25/15 Q1017 NOSIG
TAF: TAF LOWK 241115Z 2412/2512 VRB05KT 9999 SCT060 TX26/2414Z TN15/2504Z PROB30 TEMPO 2413/2417 VRB15G25KT TSRA SCT040 FEW050CB TEMPO 2418/2424 02010KT
Voir NOTAMs / SUP AIP / TFR affectant cet aéroport [VIEW]
Fréquences de communication: [VIEW]

Pistes:

Coordonnées de l'aéroport

Adresse: District Sankt Veit An Der Glan Austria

Vue satellite de LOKP